EWG063 EGLL-LIMJ

Flight info

Callsign EWG063
Flight time N/A
Altitude 35000
Route MODMI M185 MID UL612 OGULO DCT OKASI DCT OKEKO DCT MOU DCT MADIV DCT MOKIP DCT TUFTA DCT GEVEA/N0458F330 DCT MOBLO DCT LURAG DCT OBUXA DCT TOP/N0399F190 M730 TESTO
Aircraft A320/M-SDE3FGHIRWY/LB1

Departure

Time 2026-05-04 19:05
Airport London Heathrow Airport (EGLL)

Arrival

Time N/A
Airport Genoa Cristoforo Colombo Airport (LIMJ)
Time Latitude Longitude Altitude Speed Heading
2026-05-04 18:19 51.46820 -0.44680 90 ft 0 kts 267°
2026-05-04 18:46 51.46820 -0.44670 86 ft 4 kts 267°
2026-05-04 18:47 51.46821 -0.44627 87 ft 4 kts 267°
2026-05-04 18:47 51.46822 -0.44593 87 ft 4 kts 259°
2026-05-04 18:47 51.46832 -0.44560 86 ft 4 kts 204°
2026-05-04 18:47 51.46856 -0.44554 88 ft 4 kts 179°
2026-05-04 18:48 51.46862 -0.44555 88 ft 0 kts 179°
2026-05-04 18:52 51.46850 -0.44554 87 ft 8 kts 179°
2026-05-04 18:52 51.46764 -0.44572 89 ft 17 kts 221°
2026-05-04 18:52 51.46753 -0.44799 86 ft 24 kts 269°
2026-05-04 18:52 51.46751 -0.45071 86 ft 25 kts 270°
2026-05-04 18:53 51.46750 -0.45356 86 ft 26 kts 270°
2026-05-04 18:53 51.46749 -0.45653 86 ft 27 kts 270°
2026-05-04 18:53 51.46749 -0.45962 86 ft 28 kts 270°
2026-05-04 18:53 51.46748 -0.46282 86 ft 29 kts 270°
2026-05-04 18:54 51.46748 -0.46612 86 ft 30 kts 269°
2026-05-04 18:54 51.46747 -0.46950 88 ft 31 kts 270°
2026-05-04 18:54 51.46746 -0.47287 86 ft 28 kts 269°
2026-05-04 18:54 51.46745 -0.47606 86 ft 29 kts 270°
2026-05-04 18:55 51.46744 -0.47911 86 ft 23 kts 269°
2026-05-04 18:55 51.46743 -0.48109 86 ft 0 kts 269°
2026-05-04 18:56 51.46743 -0.48145 86 ft 4 kts 269°
2026-05-04 18:57 51.46736 -0.48187 86 ft 4 kts 242°
2026-05-04 18:57 51.46699 -0.48215 88 ft 9 kts 182°
2026-05-04 18:57 51.46643 -0.48213 86 ft 7 kts 179°
2026-05-04 18:57 51.46598 -0.48213 87 ft 6 kts 180°
2026-05-04 18:58 51.46594 -0.48213 87 ft 0 kts 180°
2026-05-04 19:03 51.46593 -0.48213 87 ft 1 kts 180°
2026-05-04 19:03 51.46550 -0.48212 87 ft 11 kts 180°
2026-05-04 19:04 51.46490 -0.48189 89 ft 8 kts 134°
2026-05-04 19:04 51.46480 -0.48103 87 ft 11 kts 89°
2026-05-04 19:04 51.46482 -0.47708 86 ft 70 kts 90°
2026-05-04 19:04 51.46484 -0.46599 90 ft 128 kts 90°
2026-05-04 19:05 51.46499 -0.44924 226 ft 161 kts 86°
2026-05-04 19:05 51.46519 -0.43178 1025 ft 156 kts 86°
2026-05-04 19:05 51.46475 -0.41417 1570 ft 171 kts 108°
2026-05-04 19:05 51.45757 -0.39752 1928 ft 192 kts 125°
2026-05-04 19:06 51.44812 -0.38087 2204 ft 216 kts 143°
2026-05-04 19:06 51.43349 -0.37114 2564 ft 241 kts 158°
2026-05-04 19:06 51.41686 -0.36224 3081 ft 260 kts 160°
2026-05-04 19:06 51.39872 -0.35867 3869 ft 269 kts 188°
2026-05-04 19:07 51.38114 -0.36889 4756 ft 272 kts 206°
2026-05-04 19:07 51.36415 -0.38236 5590 ft 274 kts 207°
2026-05-04 19:07 51.34709 -0.39599 5895 ft 274 kts 207°
2026-05-04 19:07 51.33006 -0.40956 5989 ft 274 kts 206°
2026-05-04 19:08 51.31296 -0.42313 5988 ft 275 kts 206°
2026-05-04 19:08 51.29577 -0.43666 5982 ft 275 kts 206°
2026-05-04 19:08 51.27860 -0.45014 6002 ft 275 kts 206°
2026-05-04 19:08 51.26148 -0.46365 6001 ft 275 kts 206°
2026-05-04 19:09 51.24430 -0.47705 6011 ft 275 kts 202°
2026-05-04 19:09 51.22570 -0.48224 6004 ft 273 kts 174°
2026-05-04 19:09 51.20721 -0.47562 5989 ft 273 kts 162°
2026-05-04 19:09 51.18902 -0.46642 6105 ft 277 kts 161°
2026-05-04 19:10 51.17072 -0.45689 7018 ft 276 kts 161°
2026-05-04 19:10 51.15245 -0.44719 7898 ft 277 kts 161°
2026-05-04 19:10 51.13410 -0.43731 8753 ft 280 kts 161°
2026-05-04 19:10 51.11559 -0.42723 9602 ft 283 kts 161°
2026-05-04 19:11 51.09678 -0.41691 10241 ft 293 kts 161°
2026-05-04 19:11 51.07683 -0.40559 10456 ft 316 kts 158°
2026-05-04 19:11 51.05597 -0.39075 10646 ft 340 kts 155°
2026-05-04 19:11 51.03435 -0.37410 10885 ft 358 kts 153°
2026-05-04 19:12 51.01189 -0.35614 11452 ft 364 kts 153°
2026-05-04 19:12 50.96606 -0.31923 12737 ft 374 kts 153°
2026-05-04 19:12 50.94229 -0.30039 13387 ft 379 kts 153°
2026-05-04 19:13 50.91885 -0.28203 13984 ft 383 kts 153°
2026-05-04 19:13 50.89476 -0.26334 14572 ft 387 kts 153°
2026-05-04 19:13 50.87051 -0.24458 15185 ft 389 kts 153°
2026-05-04 19:13 50.84619 -0.22579 15803 ft 390 kts 153°
2026-05-04 19:14 50.82173 -0.20689 16382 ft 393 kts 153°
2026-05-04 19:14 50.79713 -0.18784 16946 ft 395 kts 153°
2026-05-04 19:14 50.77236 -0.16864 17504 ft 398 kts 153°